KI7LNA Weather Reports


time (UTC)temp
C
wind
direction
speed
KPH
gust
KPH
rain 1hr
cm
rain 24hr
cm
rain mn
cm
humidity
%
barometer
mb
20260502220402 25 277 11.3 17.7 0.00 0.00 0.00 22 931.6
20260502215901 25 286 3.2 6.4 0.00 0.00 0.00 25 931.9
20260502215401 25 294 3.2 8.0 0.00 0.00 0.00 22 931.9
20260502214901 25 289 6.4 11.3 0.00 0.00 0.00 22 931.9
20260502214402 25 303 3.2 9.7 0.00 0.00 0.00 23 931.9
20260502213902 25 167 4.8 9.7 0.00 0.00 0.00 21 931.9
20260502213402 25 192 8.0 11.3 0.00 0.00 0.00 21 931.9
20260502212902 25 167 6.4 11.3 0.00 0.00 0.00 23 931.9
20260502212401 25 261 9.7 9.7 0.00 0.00 0.00 24 932.3
20260502211902 25 232 1.6 6.4 0.00 0.00 0.00 21 932.3
20260502211401 25 183 6.4 8.0 0.00 0.00 0.00 22 932.3
20260502210901 25 260 3.2 8.0 0.00 0.00 0.00 29 932.3
20260502210402 25 297 8.0 8.0 0.00 0.00 0.00 27 932.3
20260502205901 24 259 3.2 8.0 0.00 0.00 0.00 28 932.3
20260502205401 24 300 3.2 8.0 0.00 0.00 0.00 24 932.3
20260502204901 24 176 3.2 6.4 0.00 0.00 0.00 26 932.6
20260502204401 25 214 3.2 8.0 0.00 0.00 0.00 25 932.6
20260502203901 24 280 3.2 9.7 0.00 0.00 0.00 29 932.6
20260502203401 23 142 4.8 4.8 0.00 0.00 0.00 26 932.6
20260502202902 23 350 4.8 11.3 0.00 0.00 0.00 25 932.6
20260502202401 23 37 3.2 9.7 0.00 0.00 0.00 26 933.0
20260502201902 23 54 4.8 8.0 0.00 0.00 0.00 26 933.0
20260502201402 22 255 8.0 9.7 0.00 0.00 0.00 25 933.0
20260502200902 23 288 6.4 12.9 0.00 0.00 0.00 25 933.0
20260502200403 23 276 9.7 14.5 0.00 0.00 0.00 25 933.0
20260502195901 22 262 3.2 8.0 0.00 0.00 0.00 26 933.0
20260502195401 22 302 6.4 8.0 0.00 0.00 0.00 31 933.3
20260502194901 23 288 6.4 11.3 0.00 0.00 0.00 27 933.0
20260502194401 23 341 9.7 9.7 0.00 0.00 0.00 27 933.3
20260502193901 23 298 4.8 8.0 0.00 0.00 0.00 29 933.3
20260502193403 23 128 1.6 8.0 0.00 0.00 0.00 27 933.3
20260502192903 23 130 4.8 8.0 0.00 0.00 0.00 27 933.6
20260502192402 23 223 1.6 8.0 0.00 0.00 0.00 28 933.3
20260502191901 23 150 4.8 6.4 0.00 0.00 0.00 26 933.6
20260502191401 23 40 1.6 6.4 0.00 0.00 0.00 29 933.6
20260502190901 22 177 4.8 4.8 0.00 0.00 0.00 31 933.6
20260502190401 22 121 3.2 11.3 0.00 0.00 0.00 32 933.6
20260502185902 22 35 6.4 8.0 0.00 0.00 0.00 31 934.0
20260502185403 22 263 1.6 8.0 0.00 0.00 0.00 32 933.6
20260502184902 22 160 4.8 9.7 0.00 0.00 0.00 31 933.6
20260502184401 21 163 4.8 4.8 0.00 0.00 0.00 33 934.0
20260502183902 20 41 1.6 6.4 0.00 0.00 0.00 37 934.0
20260502183401 21 0 4.8 8.0 0.00 0.00 0.00 33 934.0
20260502182903 20 16 1.6 4.8 0.00 0.00 0.00 34 934.3
20260502182401 20 333 1.6 3.2 0.00 0.00 0.00 34 934.0
20260502181901 20 162 6.4 6.4 0.00 0.00 0.00 34 934.0
20260502181402 20 155 4.8 8.0 0.00 0.00 0.00 37 934.3
20260502180902 20 121 1.6 4.8 0.00 0.00 0.00 36 934.3
20260502180401 20 242 3.2 6.4 0.00 0.00 0.00 36 934.3
20260502170402 17 41 11.3 14.5 0.00 0.00 0.00 43 935.0
20260502163902 16 213 6.4 11.3 0.00 0.00 0.00 45 935.0
20260502163402 16 117 8.0 11.3 0.00 0.00 0.00 46 935.0
20260502162901 15 137 4.8 11.3 0.00 0.00 0.00 49 935.0
20260502162401 15 128 9.7 14.5 0.00 0.00 0.00 48 935.0
20260502161901 15 147 8.0 11.3 0.00 0.00 0.00 51 935.0
20260502161402 15 151 6.4 14.5 0.00 0.00 0.00 51 935.3
20260502160901 15 149 8.0 12.9 0.00 0.00 0.00 55 935.3
20260502160403 14 139 0.0 6.4 0.00 0.00 0.00 55 935.0
20260502151901 11 131 4.8 12.9 0.00 0.00 0.00 65 935.3
20260502151402 11 130 4.8 8.0 0.00 0.00 0.00 67 935.3
20260502150441 10 120 4.8 11.3 0.00 0.00 0.00 72 935.0
20260502130401 4 47 3.2 9.7 0.00 0.00 0.00 97 935.0
20260502123402 4 89 0.0 3.2 0.00 0.00 0.00 97 935.0
20260502122902 4 44 4.8 4.8 0.00 0.00 0.00 97 934.6
20260502122401 4 46 4.8 9.7 0.00 0.00 0.00 97 935.0
20260502121901 4 35 0.0 6.4 0.00 0.00 0.00 97 935.0
20260502121401 4 75 1.6 1.6 0.00 0.00 0.00 96 935.0
20260502120902 5 58 1.6 1.6 0.00 0.00 0.00 96 935.0
20260502120402 5 135 0.0 1.6 0.00 0.00 0.00 96 935.0
20260502115901 5 48 1.6 3.2 0.00 0.00 0.00 96 935.0
20260502115401 5 31 4.8 4.8 0.00 0.00 0.00 96 934.6
20260502114902 5 26 4.8 4.8 0.00 0.00 0.00 96 935.0
20260502114402 5 143 0.0 1.6 0.00 0.00 0.00 95 935.0
20260502113902 5 143 0.0 1.6 0.00 0.00 0.00 95 935.0
20260502113401 5 143 0.0 1.6 0.00 0.00 0.00 95 935.0
20260502112901 5 143 0.0 1.6 0.00 0.00 0.00 95 935.0
20260502112401 5 143 0.0 1.6 0.00 0.00 0.00 95 935.0
20260502111901 5 143 0.0 1.6 0.00 0.00 0.00 95 935.0
20260502111401 5 143 0.0 1.6 0.00 0.00 0.00 95 934.6
20260502110902 5 143 0.0 1.6 0.00 0.00 0.00 95 934.6
20260502110402 5 62 3.2 3.2 0.00 0.00 0.00 94 935.0
20260502105902 5 118 3.2 3.2 0.00 0.00 0.00 94 935.0
20260502105401 5 84 3.2 3.2 0.00 0.00 0.00 95 935.0
20260502104903 5 40 6.4 8.0 0.00 0.00 0.00 95 935.0
20260502104401 5 50 4.8 4.8 0.00 0.00 0.00 95 935.0
20260502103902 5 50 4.8 4.8 0.00 0.00 0.00 95 935.0
20260502103402 5 38 4.8 4.8 0.00 0.00 0.00 94 935.0
20260502102902 5 117 0.0 3.2 0.00 0.00 0.00 94 935.0
20260502102401 5 72 0.0 3.2 0.00 0.00 0.00 94 935.0
20260502101901 5 65 3.2 4.8 0.00 0.00 0.00 94 934.6
20260502101401 5 58 1.6 3.2 0.00 0.00 0.00 92 934.6
20260502100904 5 40 3.2 4.8 0.00 0.00 0.00 92 934.6
20260502100401 6 42 6.4 8.0 0.00 0.00 0.00 93 934.6
20260502091402 7 67 1.6 1.6 0.00 0.00 0.00 86 934.3
20260502090902 7 67 1.6 1.6 0.00 0.00 0.00 86 934.3
20260502090402 7 67 1.6 1.6 0.00 0.00 0.00 86 934.3
20260502071402 7 143 3.2 3.2 0.00 0.00 0.00 82 934.3
20260502070902 8 67 0.0 1.6 0.00 0.00 0.00 80 934.0
20260502070401 8 67 0.0 1.6 0.00 0.00 0.00 80 934.3
20260502065901 8 78 1.6 3.2 0.00 0.00 0.00 80 934.3
20260502065402 8 72 4.8 4.8 0.00 0.00 0.00 79 934.3
20260502064902 8 71 4.8 4.8 0.00 0.00 0.00 80 934.3
20260502064401 8 106 3.2 4.8 0.00 0.00 0.00 80 934.0
20260502063901 8 92 3.2 3.2 0.00 0.00 0.00 79 934.0
20260502063401 8 77 0.0 3.2 0.00 0.00 0.00 79 934.0
20260502062902 8 65 3.2 4.8 0.00 0.00 0.00 77 934.0
20260502062401 8 71 3.2 3.2 0.00 0.00 0.00 77 934.3
20260502061901 8 39 0.0 3.2 0.00 0.00 0.00 76 934.0
20260502061401 9 59 1.6 3.2 0.00 0.00 0.00 76 934.0
20260502060902 9 126 3.2 3.2 0.00 0.00 0.00 75 934.0
20260502060402 9 142 0.0 1.6 0.00 0.00 0.00 75 934.0
20260502055902 9 60 4.8 4.8 0.00 0.00 0.00 75 934.0
20260502055402 10 82 1.6 3.2 0.00 0.00 0.00 76 934.0
20260502054901 10 130 3.2 4.8 0.00 0.00 0.00 75 933.6
20260502054401 10 117 0.0 0.0 0.00 0.00 0.00 72 934.0
20260502053902 10 39 4.8 6.4 0.00 0.00 0.00 72 933.6
20260502053402 10 43 6.4 6.4 0.00 0.00 0.00 72 933.6
20260502052902 10 55 3.2 3.2 0.00 0.00 0.00 72 933.6
20260502052402 10 75 3.2 3.2 0.00 0.00 0.00 70 933.6
20260502051901 10 65 3.2 4.8 0.00 0.00 0.00 70 933.6
20260502051401 11 68 3.2 3.2 0.00 0.00 0.00 69 933.6
20260502050903 11 35 3.2 3.2 0.00 0.00 0.00 68 933.6
20260502050401 11 39 3.2 3.2 0.00 0.00 0.00 67 933.6
20260502045901 11 32 3.2 4.8 0.00 0.00 0.00 66 933.6
20260502045401 11 51 3.2 3.2 0.00 0.00 0.00 67 933.3
20260502044902 12 73 0.0 1.6 0.00 0.00 0.00 62 933.6
20260502044402 12 73 0.0 1.6 0.00 0.00 0.00 62 933.3
20260502043901 12 95 3.2 3.2 0.00 0.00 0.00 60 933.3
20260502043401 12 63 3.2 4.8 0.00 0.00 0.00 60 933.6
20260502042901 12 53 4.8 4.8 0.00 0.00 0.00 60 933.6
20260502042401 13 63 3.2 4.8 0.00 0.00 0.00 60 933.3
20260502041901 13 32 3.2 3.2 0.00 0.00 0.00 58 933.6
20260502041401 13 49 4.8 4.8 0.00 0.00 0.00 57 933.3
20260502040901 13 34 3.2 3.2 0.00 0.00 0.00 57 933.3
20260502040403 13 99 1.6 4.8 0.00 0.00 0.00 53 933.3
20260502035901 14 163 4.8 4.8 0.00 0.00 0.00 55 933.3
20260502035401 15 92 1.6 4.8 0.00 0.00 0.00 51 933.0
20260502034902 15 118 3.2 4.8 0.00 0.00 0.00 49 933.0
20260502034401 15 151 0.0 3.2 0.00 0.00 0.00 49 933.0
20260502033901 15 85 3.2 4.8 0.00 0.00 0.00 50 933.0
20260502033402 15 59 0.0 3.2 0.00 0.00 0.00 48 933.0
20260502032901 15 63 4.8 4.8 0.00 0.00 0.00 49 933.0
20260502032402 15 81 1.6 3.2 0.00 0.00 0.00 50 932.6
20260502031901 16 311 0.0 3.2 0.00 0.00 0.00 50 933.0
20260502031401 16 15 3.2 6.4 0.00 0.00 0.00 46 932.6
20260502030902 17 33 4.8 8.0 0.00 0.00 0.00 44 932.3
20260502030402 17 22 8.0 9.7 0.00 0.00 0.00 41 932.3
20260502025901 18 30 6.4 8.0 0.00 0.00 0.00 40 932.6
20260502025402 18 14 6.4 8.0 0.00 0.00 0.00 38 932.6
20260502024902 19 11 6.4 8.0 0.00 0.00 0.00 36 932.3
20260502024401 20 0 6.4 6.4 0.00 0.00 0.00 33 932.3
20260502023901 20 17 3.2 4.8 0.00 0.00 0.00 32 932.3
20260502023401 20 10 3.2 4.8 0.00 0.00 0.00 33 932.3
20260502022901 20 22 0.0 1.6 0.00 0.00 0.00 32 932.3
20260502022402 20 44 0.0 0.0 0.00 0.00 0.00 31 932.3
20260502021901 21 25 0.0 1.6 0.00 0.00 0.00 31 932.3
20260502021401 21 2 4.8 4.8 0.00 0.00 0.00 30 931.9
20260502020901 21 342 11.3 14.5 0.00 0.00 0.00 29 931.9
20260502020402 21 296 8.0 14.5 0.00 0.00 0.00 29 931.9
20260502015901 22 332 4.8 6.4 0.00 0.00 0.00 30 931.9
20260502015402 22 315 3.2 4.8 0.00 0.00 0.00 28 931.9
20260502014902 21 320 1.6 3.2 0.00 0.00 0.00 28 931.9
20260502014402 22 281 6.4 8.0 0.00 0.00 0.00 28 932.3
20260502013902 22 343 8.0 11.3 0.00 0.00 0.00 27 931.9
20260502013402 22 353 12.9 16.1 0.00 0.00 0.00 27 931.9
20260502012901 22 336 8.0 11.3 0.00 0.00 0.00 28 931.9
20260502012401 22 321 6.4 9.7 0.00 0.00 0.00 26 931.9
20260502011903 22 322 8.0 17.7 0.00 0.00 0.00 27 932.3
20260502011401 22 351 8.0 11.3 0.00 0.00 0.00 27 932.3
20260502010901 22 287 9.7 16.1 0.00 0.00 0.00 26 931.9
20260502010401 22 319 11.3 17.7 0.00 0.00 0.00 25 932.3
20260502005902 22 317 9.7 17.7 0.00 0.00 0.00 26 932.3
20260502005403 22 305 11.3 19.3 0.00 0.00 0.00 24 932.6
20260502004902 22 303 9.7 16.1 0.00 0.00 0.00 25 932.3
20260502004401 22 313 9.7 17.7 0.00 0.00 0.00 25 932.3
20260502003903 22 336 14.5 16.1 0.00 0.00 0.00 23 932.3
20260502003401 22 315 11.3 17.7 0.00 0.00 0.00 23 932.3
20260502002902 22 274 6.4 17.7 0.00 0.00 0.00 23 932.3
20260502002402 22 301 12.9 17.7 0.00 0.00 0.00 24 932.3
20260502001902 22 263 6.4 11.3 0.00 0.00 0.00 23 932.3
20260502001401 22 297 12.9 24.1 0.00 0.00 0.00 23 932.6
20260502000901 22 311 8.0 17.7 0.00 0.00 0.00 23 932.3
20260502000402 22 312 11.3 12.9 0.00 0.00 0.00 26 932.3
20260501235901 22 352 11.3 17.7 0.00 0.00 0.00 23 932.6
20260501235401 22 6 8.0 22.5 0.00 0.00 0.00 27 932.6
20260501234901 22 277 12.9 20.9 0.00 0.00 0.00 23 932.6
20260501234401 22 305 11.3 17.7 0.00 0.00 0.00 24 932.6
20260501233901 22 290 12.9 20.9 0.00 0.00 0.00 25 932.6
20260501233401 22 331 6.4 19.3 0.00 0.00 0.00 24 932.6
20260501232902 22 348 16.1 20.9 0.00 0.00 0.00 26 932.6
20260501232401 22 310 17.7 29.0 0.00 0.00 0.00 23 932.6
20260501231902 22 348 14.5 19.3 0.00 0.00 0.00 26 932.6
20260501231402 22 300 16.1 20.9 0.00 0.00 0.00 25 932.6
20260501230901 22 241 8.0 17.7 0.00 0.00 0.00 25 932.6
20260501230401 22 320 14.5 20.9 0.00 0.00 0.00 25 932.6
20260501225901 22 313 16.1 20.9 0.00 0.00 0.00 25 933.0
20260501225403 22 322 14.5 19.3 0.00 0.00 0.00 25 933.0
20260501224901 22 311 4.8 17.7 0.00 0.00 0.00 26 933.0
20260501224402 22 307 12.9 19.3 0.00 0.00 0.00 28 933.0
20260501223901 22 306 9.7 19.3 0.00 0.00 0.00 25 933.0
20260501223402 22 323 8.0 19.3 0.00 0.00 0.00 25 933.0
20260501222901 22 271 4.8 19.3 0.00 0.00 0.00 26 933.0
20260501222402 22 289 19.3 19.3 0.00 0.00 0.00 25 933.3
20260501221902 22 295 8.0 20.9 0.00 0.00 0.00 27 933.3
20260501221401 22 296 12.9 17.7 0.00 0.00 0.00 26 933.3
20260501220902 22 285 8.0 11.3 0.00 0.00 0.00 28 933.3